NSS-10 (AMC-12)         
1 28526U 05003A   19258.82240317 -.00000259  00000-0  00000-0 0  9990
2 28526   0.3779  96.6409 0002818  80.8451  75.6211  1.00272977 28423
BREEZE-M R/B            
1 28527U 05003B   19258.59236205 -.00000000  00000-0  00000-0 0  9990
2 28527  18.7816 262.4812 5387070  75.6630  47.7874  1.93169495103096
BREEZE-M DEB [TANK]     
1 28528U 05003C   19257.47183470  .00000448  00000-0  10170-3 0  9999
2 28528  49.5711   2.2517 5153194 274.6297  30.9880  5.35191373277793